This demonstration page uses our WeatherBlox Daily Observations layout. Learn more.

Left ArrowRight Arrow

41.12389, -100.76542

Hourly Observations for March 21, 2020

Temp ( °F °C ) Dew Point ( °F °C ) Humidity (%) Winds ( mph kmh ) Pressure ( in mb ) Visibility ( mi km ) Precip ( " mm )
12:53 am 00:53 Clear 20 -6.7 13 -10.6 74 74 SE 8 13 30.51 1033 10 16 0.00 0.00
1:53 am 01:53 Clear 20 -6.7 14 -10 78 78 SSE 7 11 30.49 1033 10 16 0.00 0.00
2:53 am 02:53 Mostly Clear 20 -6.7 13 -10.6 74 74 S 8 13 30.47 1032 10 16 0.00 0.00
3:53 am 03:53 Clear 19 -7.2 13 -10.6 77 77 S 7 11 30.45 1031 10 16 0.00 0.00
4:53 am 04:53 Clear 20 -6.7 13 -10.6 74 74 S 9 15 30.41 1030 10 16 0.00 0.00
5:53 am 05:53 Clear 20 -6.7 13 -10.6 74 74 S 8 13 30.40 1030 10 16 0.00 0.00
6:53 am 06:53 Clear 20 -6.7 13 -10.6 74 74 SSW 12 19 30.40 1030 10 16 0.00 0.00
7:53 am 07:53 Sunny 20 -6.7 13 -10.6 74 74 SSW 13 20 30.40 1029 10 16 0.00 0.00
8:53 am 08:53 Sunny 22 -5.6 14 -10 71 71 SSW 16 26 30.40 1030 10 16 0.00 0.00
9:53 am 09:53 Sunny 26 -3.3 16 -8.9 66 66 SSW 13 20 30.40 1030 10 16 0.00 0.00
10:53 am 10:53 Sunny 31 -0.6 18 -7.8 59 59 SSW 16 26 30.37 1029 10 16 0.00 0.00
11:53 am 11:53 Sunny 34 1.1 20 -6.7 56 56 SW 21 33 30.35 1028 10 16 0.00 0.00
12:53 pm 12:53 Sunny 38 3.3 23 -5 55 55 SW 17 28 30.33 1027 10 16 0.00 0.00
1:53 pm 13:53 Sunny 42 5.6 25 -3.9 51 51 SW 14 22 30.29 1026 10 16 0.00 0.00
2:53 pm 14:53 Sunny 45 7.2 27 -2.8 49 49 S 12 19 30.24 1024 10 16 0.00 0.00
3:53 pm 15:53 Sunny 48 8.9 29 -1.7 48 48 S 15 24 30.20 1023 10 16 0.00 0.00
4:53 pm 16:53 Sunny 49 9.4 30 -1.1 48 48 SSW 13 20 30.17 1022 10 16 0.00 0.00
5:53 pm 17:53 Sunny 49 9.4 31 -0.6 50 50 SSW 13 20 30.15 1021 10 16 0.00 0.00
6:53 pm 18:53 Sunny 48 8.9 31 -0.6 52 52 S 8 13 30.14 1021 10 16 0.00 0.00
7:53 pm 19:53 Sunny 41 5 30 -1.1 65 65 ESE 5 7 30.15 1021 10 16 0.00 0.00
8:53 pm 20:53 Clear 37 2.8 29 -1.7 73 73 SE 8 13 30.16 1021 10 16 0.00 0.00
9:53 pm 21:53 Clear 38 3.3 30 -1.1 73 73 SE 8 13 30.15 1021 10 16 0.00 0.00
10:53 pm 22:53 Clear 35 1.7 28 -2.2 76 76 ESE 9 15 30.14 1021 10 16 0.00 0.00
11:53 pm 23:53 Clear 40 4.4 29 -1.7 65 65 SSE 8 13 30.13 1020 10 16 0.00 0.00

Powered by AerisWeather